Regional Weather Roundup
Issued by NWS

Home | Current Version | Previous Version | Text Only | Print | Product List | Glossary Off
Versions: 1 2 3 4 5 6 7 8 9 10 11 12 13 14 15 16 17 18 19 20 21 22 23 24 25 26 27 28 29 30 31 32 33 34 35 36

000
ASUS45 KCYS 220910
RWRWY

WYOMING REGIONAL WEATHER ROUNDUP
NATIONAL WEATHER SERVICE CHEYENNE WY
300 AM MDT WED OCT 22 2014

NOTE:  "FAIR" INDICATES FEW OR NO CLOUDS BELOW 12,000 FEET
WITH NO SIGNIFICANT WEATHER AND/OR OBSTRUCTIONS TO VISIBILITY.

WYZ001-221000-
YELLOWSTONE NATIONAL PARK

CITY           SKY/WX    TMP DP  RH WIND       PRES   REMARKS
LK YELLOWSTONE   N/A     24  22  91 CALM      30.14R
W YELLOWSTONE  NOT AVBL

$$
WYZ002>013-054>058-071-098>099-221000-
NORTHERN WYOMING

CITY           SKY/WX    TMP DP  RH WIND       PRES   REMARKS
JACKSON        CLOUDY    36  32  87 CALM      30.12S
CODY           CLEAR    N/A N/A N/A W7        30.00R
GREYBULL       CLEAR     39  22  50 SE5       29.98R
WORLAND        FLURRIES  38  23  55 S10       29.99R WCI  31
SHERIDAN       PTCLDY    48  27  44 NW20G29   29.95S
BUFFALO        MOCLDY    45  26  47 NW17G28   29.98R
GILLETTE       PTCLDY    43  30  60 NW7       29.96R
HULETT         FAIR      50  32  50 W5        29.95
NEWCASTLE      FAIR      54  34  47 NW15G21   29.91

$$
WYZ014>020-022>026-101>103-221000-
CENTRAL WYOMING

CITY           SKY/WX    TMP DP  RH WIND       PRES   REMARKS
BIG PINEY      CLEAR     24  20  84 E7        30.16R WCI  16
PINEDALE       SUNNY     25  23  93 W3        30.15S
DUBOIS         PTSUNNY   34  23  64 NW9       30.08R WCI  26
LANDER         CLEAR     40  21  46 SE3       30.03R
RIVERTON       CLEAR     38  22  52 W8        30.04R WCI  32
CASPER         MOCLDY    42  21  43 W10       30.02R
DOUGLAS        MOCLDY    52  24  33 NW17      30.01R

$$
WYZ021-027>030-104>119-221000-
SOUTHERN WYOMING

CITY           SKY/WX    TMP DP  RH WIND       PRES   REMARKS
EVANSTON       CLEAR     36  24  62 S3        30.15R
FORT BRIDGER   FAIR      32  26  79 S5        30.17S WCI  28
ROCK SPRINGS   CLEAR     34  27  75 W9        30.14R WCI  27
DIXON          CLOUDY    43  40  89 CALM      30.16S
RAWLINS        MOCLDY    40  35  83 W7        30.10S
SARATOGA       CLOUDY    43  37  81 W15       30.13R
LARAMIE        MOCLDY    43  35  73 SW5       30.08R
CHEYENNE       CLOUDY    48  40  73 W7        30.03S
TORRINGTON     CLOUDY    53  47  79 SE3       29.94F
PINE BLUFFS    FAIR      50  46  87 CALM      30.00S

$$



USA.gov is the U.S. government's official web portal to all federal, state and local government web resources and services.